Preview of NWS' New Version of Forecast
This preview is not operational and should not be used for support decisions.

Regional Weather Roundup (RWR)

Issued by National Weather Service (NWS)

                            
000
ASUS45 KBOI 211810
RWRID 

IDAHO REGIONAL WEATHER ROUNDUP
NATIONAL WEATHER SERVICE BOISE ID
1200 PM MDT SAT SEP 21 2019

NOTE: "FAIR" INDICATES FEW OR NO CLOUDS BELOW 12000 FEET
WITH NO SIGNIFICANT WEATHER AND/OR OBSTRUCTIONS TO VISIBILITY

IDZ012-014-211900-
SOUTHWEST IDAHO

  
CITY           SKY/WX    TMP DP  RH WIND       PRES   REMARKS
BOISE          SUNNY     61  44  53 W7        30.16F                  
CALDWELL       SUNNY     62  45  53 W10       30.16F                  
MOUNTAIN HOME  SUNNY     64  43  47 W12       30.15F                  
$$

IDZ016-017-211900-
SOUTHCENTRAL IDAHO

  
CITY           SKY/WX    TMP DP  RH WIND       PRES   REMARKS
BURLEY         PTSUNNY   57  41  55 W13       30.17F                  
JEROME         SUNNY     58  43  57 W14G22    30.18F                  
TWIN FALLS     SUNNY     57  41  55 NW9       30.18F                  
$$

IDZ019>023-211900-
SOUTHEAST IDAHO

  
CITY           SKY/WX    TMP DP  RH WIND       PRES   REMARKS
IDAHO FALLS    PTSUNNY   50  42  74 SW18      30.19S                  
POCATELLO      PTSUNNY   53  40  61 SW13      30.20S                  
REXBURG        CLOUDY    50  42  74 SW10      30.18S                  
$$

IDZ006-010-011-018-031-032-211900-
CENTRAL IDAHO MOUNTAINS

  
CITY           SKY/WX    TMP DP  RH WIND       PRES   REMARKS
MCCALL         PTSUNNY   52  39  61 CALM      30.16F                  
HAILEY         PTSUNNY   52  41  66 E7        30.18S                  
STANLEY          N/A     52  33  48 CALM      30.20F                  
SALMON         PTSUNNY   53  44  71 NW5       30.15F                  
CHALLIS        MOSUNNY   55  37  50 SE5       30.15F                  
$$

IDZ002-004-006-007-026-211900-
NORTHERN IDAHO

  
CITY           SKY/WX    TMP DP  RH WIND       PRES   REMARKS
LEWISTON       MOSUNNY   63  52  67 NW6       30.11F                  
LOWELL           N/A     59  54  83 CALM      30.13F                  
COEUR D'ALENE  CLOUDY    56  47  71 SW5       30.12F                  
MULLAN PASS    CLOUDY    42  40  92 VRB6      30.14S                  
$$